This is the latest recevied weather packets stored in our database for station/object SV9TNF-56. If no packets are shown the sender has not sent any weather packets the latest 10 day(s).
| Time | Temp. | Humidity | Pressure | Rain* | Wind** | Luminosity | Snow |
|---|---|---|---|---|---|---|---|
| 1788536086 | 25.56° C | 58% | 1010.8 hPa | 0 mm | 14.75 m/s, 166° | - | - |
| 1788535786 | 25.56° C | 56% | 1010.5 hPa | 0 mm | 17.88 m/s, 170° | - | - |
| 1788535486 | 25.56° C | 59% | 1010.8 hPa | 0 mm | 14.31 m/s, 222° | - | - |
| 1788535186 | 25.56° C | 58% | 1010.8 hPa | 0 mm | 24.14 m/s, 227° | - | - |
| 1788534886 | 25.56° C | 60% | 1010.8 hPa | 0 mm | 22.8 m/s, 294° | - | - |
| 1788534586 | 25.56° C | 61% | 1010.8 hPa | 0 mm | 13.86 m/s, 121° | - | - |
| 1788534285 | 25.56° C | 62% | 1010.8 hPa | 0 mm | 17.88 m/s, 139° | - | - |
| 1788533985 | 26.11° C | 59% | 1010.5 hPa | 0 mm | 16.99 m/s, 210° | - | - |
| 1788533685 | 25.56° C | 58% | 1010.5 hPa | 0 mm | 14.75 m/s, 179° | - | - |
| 1788533386 | 25.56° C | 58% | 1010.5 hPa | 0 mm | 16.09 m/s, 169° | - | - |
| 1788533085 | 25.56° C | 58% | 1010.5 hPa | 0 mm | 16.99 m/s, 178° | - | - |
| 1788532785 | 26.11° C | 56% | 1010.5 hPa | 0 mm | 24.59 m/s, 101° | - | - |
| 1788532485 | 26.11° C | 52% | 1010.5 hPa | 0 mm | 11.18 m/s, 156° | - | - |
| 1788532185 | 26.11° C | 48% | 1010.5 hPa | 0 mm | 21.9 m/s, 233° | - | - |
| 1788531885 | 26.11° C | 50% | 1010.2 hPa | 0 mm | 27.72 m/s, 228° | - | - |
| 1788531585 | 26.11° C | 50% | 1010.2 hPa | 0 mm | 32.63 m/s, 251° | - | - |
| 1788531284 | 26.11° C | 49% | 1010.5 hPa | 0 mm | 28.16 m/s, 226° | - | - |
| 1788530984 | 26.11° C | 50% | 1010.2 hPa | 0 mm | 24.59 m/s, 163° | - | - |
| 1788530684 | 26.11° C | 48% | 1010.2 hPa | 0 mm | 19.67 m/s, 150° | - | - |
| 1788530384 | 26.67° C | 48% | 1010.2 hPa | 0 mm | 27.72 m/s, 295° | - | - |
| 1788530084 | 26.11° C | 48% | 1010.2 hPa | 0 mm | 21.46 m/s, 186° | - | - |
| 1788529784 | 26.67° C | 48% | 1010.2 hPa | 0 mm | 30.4 m/s, 240° | - | - |
| 1788529484 | 26.67° C | 46% | 1010.2 hPa | 0 mm | 22.8 m/s, 232° | - | - |
| 1788529184 | 26.67° C | 45% | 1009.8 hPa | 0 mm | 25.48 m/s, 198° | - | - |
| 1788528884 | 26.67° C | 44% | 1010.5 hPa | 0 mm | 30.4 m/s, 213° | - | - |
* Rain latest hour (hover to see other rain measurements)
** Current wind speed in m/s (hover to see current wind gust speed)